カタログに戻る

OPTUS A2 R/B

PAM-D

運用中GTO
NORAD 16294·ROCKET BODY·🇺🇸 United States

打ち上げ Nov 27, 1985 から Cape Canaveral Space Force Station

Loading…

TLE

経年Source: Space-Track

元期: Sep 14, 2026, 02:03 UTC

1 16294U 85109G   26257.08552308  .00000465  00000-0  47173-3 0  9998
2 16294  25.8103 122.7042 7159222 288.6485  10.4564  2.39177992304398

AllMySatでOPTUS A2 R/Bをリアルタイム追跡

Download on the App Store